This is the latest recevied weather packets stored in our database for station/object K8RLH. If no packets are shown the sender has not sent any weather packets the latest 1 day(s).
| Time | Temp. | Humidity | Pressure | Rain* | Wind** | Luminosity | Snow |
|---|---|---|---|---|---|---|---|
| 1778033718 | 21.11° C | 55% | 1015.7 hPa | 0 mm | - | 0 W/m² | - |
| 1778033415 | 21.11° C | 57% | 1015.8 hPa | 0 mm | - | 0 W/m² | - |
| 1778032810 | 21.11° C | 57% | 1015.5 hPa | 0 mm | - | 0 W/m² | - |
| 1778032507 | 21.11° C | 57% | 1015.5 hPa | 0 mm | - | 0 W/m² | - |
| 1778032204 | 21.11° C | 55% | 1015.5 hPa | 0 mm | - | 0 W/m² | - |
| 1778031901 | 21.67° C | 55% | 1015.7 hPa | 0 mm | - | 0 W/m² | - |
| 1778031597 | 21.67° C | 54% | 1015.7 hPa | 0 mm | - | 0 W/m² | - |
| 1778031295 | 21.67° C | 54% | 1015.9 hPa | 0 mm | - | 0 W/m² | - |
| 1778030991 | 21.67° C | 53% | 1015.7 hPa | 0 mm | - | 0 W/m² | - |
| 1778030687 | 22.22° C | 53% | 1015.4 hPa | 0 mm | - | 0 W/m² | - |
| 1778030384 | 22.22° C | 52% | 1015.7 hPa | 0 mm | - | 0 W/m² | - |
| 1778030082 | 22.22° C | 51% | 1015.9 hPa | 0 mm | - | 0 W/m² | - |
| 1778029778 | 22.22° C | 52% | 1015.8 hPa | 0 mm | - | 0 W/m² | - |
| 1778029478 | 22.22° C | 55% | 1015.9 hPa | 0 mm | - | 0 W/m² | - |
| 1778029173 | 22.22° C | 51% | 1015.7 hPa | 0 mm | - | 0 W/m² | - |
| 1778028566 | 22.78° C | 49% | 1015.6 hPa | 0 mm | - | 0 W/m² | - |
| 1778028265 | 22.78° C | 48% | 1015.6 hPa | 0 mm | - | 0 W/m² | - |
| 1778027960 | 22.78° C | 48% | 1015.7 hPa | 0 mm | - | 0 W/m² | - |
| 1778027657 | 22.78° C | 48% | 1015.6 hPa | 0 mm | - | 0 W/m² | - |
| 1778026745 | 23.33° C | 46% | 1015.7 hPa | 0 mm | - | 1 W/m² | - |
| 1778025232 | 24.44° C | 44% | 1015.7 hPa | 0 mm | - | 6 W/m² | - |
* Rain latest hour (hover to see other rain measurements)
** Current wind speed in m/s (hover to see current wind gust speed)